Powrót do katalogu

STARLINK-34311

AktywnyŁącznośćVLEO
NORAD 64206·PAYLOAD·🇺🇸 United States

Wystrzelony May 31, 2025 z Vandenberg Space Force Base

Loading…

Następne Przeloty (najbliższe 24 godziny)

TLE

ŚwieżeSource: CelesTrak SupGP

Epoka: Sep 14, 2026, 21:07 UTC

1 64206C 25117D   26257.88034722  .00054364  00000+0  16063-2 0  2576
2 64206  53.1578 237.9015 0001341  89.6867 247.7182 15.34360409    16

Śledź STARLINK-34311 w czasie rzeczywistym z AllMySat

Download on the App Store